Location: Camerons Lookout
(40.9833°S, 175.9333°E)
Time: 21:05:56
(UTC+00:00)

Cosmos 1725 Rocket - Pass Details

Date: 14 January 2026
Orbit: 961 x 990 km, 82.9° (Epoch: 18 February)

Event Time Altitude Azimuth Distance (km) Brightness Sun altitude
Exits shadow 10:49:52 30° 328° (NNW) 1,680 4.9 -23.9°
Maximum altitude 10:52:58 60° 260° (W) 1,127 4.4 -24.2°
Drops below altitude 10° 10:59:15 10° 180° (S) 2,773 7.3 -24.6°
Sets 11:01:51 0° 176° (S) 3,731 8.1 -24.8°
